SCP
-0 -0 -0 -0 -0 -0 -0 -0 -1 -1 -1 -1 -1 -1 -1 -0 -0 -0 -0 -0 -0 -0 0 0 0 0 0 0 0 -0 -0 -0 -0 -0 -0 -0 0 0 0 0 0 0 0
-0 -0 -0 -0 -0 -0 -0 -0 -0 -0 -1 -1 -1 -0 -0 -0 -0 -0 -0 -0 -0 -0 0 0 0 0 0 0 -0 -0 -0 -0 -0 -0 0 0 0 0 0 0 0 0 0
-0 -0 -0 -0 -0 -0 -0 -0 -0 -0 -0 -0 -0 -0 -0 -0 -0 -0 -0 -0 -0 -0 -0 -0 -0 -0 0 0 0 -0 -0 -0 -0 -0 -0 -0 -0 0 0 0 0 0 0
-0 -0 -0 -0 -0 -0 -0 -0 -0 -0 -0 -0 -0 -0 -0 -0 -0 -0 -0 -0 -0 -0 -0 -0 -0 -0 0 0 0 -0 -0 -0 -0 -0 -0 0 0 0 0 0 0 0 0
0 0 -0 -0 0 0 -0 -0 -0 -0 -0 -0 -0 -0 -0 -0 -0 -0 -0 -0 -0 -0 -0 -0 -0 -0 0 -0 -0 -0 -0 -0 -0 -0 -0 0 0 0 0 0 0 0 0
1 0 -0 0 0 -0 -0 -0 -0 -0 -0 -0 -0 -0 -0 -0 0 0 0 -0 -0 -0 -0 -0 -0 0 -0 -0 -0 -0 -0 -0 -0 -0 -0 0 0 0 0 0 0 0 0
1 1 0 0 0 0 -0 -0 -0 -0 -0 -0 -0 -0 -0 -0 0 0 0 0 0 0 0 0 0 0 0 -0 -0 -0 -0 -0 -0 -0 -0 -0 0 0 0 0 0 0 0
1 1 1 1 0 0 0 0 0 0 0 0 0 0 0 0 0 0 0 0 0 0 0 0 0 0 0 -0 -0 -0 -0 -0 -0 -0 -0 -0 0 0 0 0 0 0 0
1 2 1 1 1 0 0 0 0 0 0 0 0 0 0 0 0 0 0 0 0 0 0 0 0 0 0 0 -0 -0 -0 -0 -0 -0 -0 0 -0 0 0 0 0 0 0
1 1 1 2 1 1 1 0 0 0 0 0 0 0 0 0 0 0 0 0 0 0 0 0 0 0 0 0 0 -0 -0 -0 0 0 0 0 -0 0 0 0 0 0 0
1 1 1 1 1 1 1 0 1 0 0 0 0 0 0 0 0 0 0 0 0 0 0 0 0 0 0 0 0 -0 -0 0 0 0 0 0 0 0 0 0 0 0 0
0 0 1 1 1 1 1 1 1 1 1 1 1 1 0 0 0 0 0 0 0 0 0 0 0 0 0 0 0 0 0 0 0 0 0 0 0 0 0 0 0 0 0
0 0 1 1 1 1 1 1 2 2 1 1 1 1 0 0 0 0 0 0 0 0 0 0 0 0 0 0 0 0 0 0 0 0 0 0 0 0 0 0 0 1 1
1 1 1 1 1 1 2 2 2 2 1 1 1 1 0 0 0 0 0 0 0 0 0 0 0 0 0 0 0 0 0 0 0 0 0 0 0 0 0 0 0 1 1
0 1 1 1 1 1 1 2 2 2 1 1 1 1 0 0 0 0 0 0 0 0 0 0 0 0 0 0 0 0 0 0 0 0 0 0 0 0 0 0 1 1 1
0 0 1 1 0 1 2 2 1 1 1 1 1 0 0 0 0 0 0 0 0 0 0 0 0 0 0 0 0 0 0 0 0 0 0 0 0 0 0 0 0 1 1
0 0 1 0 0 1 1 0 0 0 0 0 0 0 0 0 0 0 0 0 0 0 0 0 0 0 0 0 0 0 0 0 0 0 0 0 0 0 0 0 0 0 0
0 0 0 1 0 1 0 0 0 0 0 0 0 0 0 0 0 0 0 0 0 0 0 0 0 0 0 0 0 0 0 0 0 0 0 0 0 0 0 0 0 1 1
0 0 0 1 0 1 0 0 0 0 0 0 0 1 1 1 1 0 0 0 0 0 0 0 0 0 0 0 0 0 0 0 0 0 0 0 0 0 0 0 0 0 0
0 0 0 1 1 0 0 0 0 0 0 0 0 0 0 0 0 0 0 1 1 3 0 0 0 0 0 0 0 0 0 0 0 0 0 0 0 0 0 0 0 0 0
0 0 0 0 0 1 1 0 0 0 0 1 0 0 0 0 0 0 0 0 1 1 0 0 0 0 0 0 0 0 0 0 0 0 0 0 0 0 0 0 0 0 0
0 0 0 0 0 1 1 0 0 0 0 0 0 0 0 0 0 0 0 0 0 0 1 0 0 0 0 0 0 0 0 0 0 0 0 0 0 0 0 0 0 0 0
0 0 0 0 0 0 0 0 0 0 0 0 0 0 0 0 0 0 0 0 0 0 0 0 0 0 0 0 0 0 0 0 0 0 0 0 0 0 0 0 0 0 0
0 0 0 0 0 0 0 0 0 0 0 0 0 0 0 0 0 0 0 0 0 0 0 0 0 0 0 0 0 0 0 0 0 0 0 0 0 0 0 0 0 0 0
0 0 0 0 0 0 0 0 0 0 0 0 0 0 0 0 0 0 0 0 0 0 0 0 0 0 0 0 0 0 0 0 0 0 0 0 0 0 0 0 0 0 0
0 1 1 0 0 0 0 0 0 0 0 0 0 0 0 0 0 0 0 -0 0 0 0 0 0 0 0 0 0 0 0 0 0 0 0 0 0 0 0 0 0 0 0
Wind_Speed_500mb
66 68 64 59 51 45 46 45 45 42 37 34 33 33 33 30 30 30 36 38 35 33 31 29 27 25 24 25 26 27 27 27 28 27 26 23 22 19 18 20 22 21 21
77 73 67 62 55 49 46 44 41 39 37 36 36 34 35 34 34 36 41 37 33 31 30 30 30 29 28 29 30 31 31 33 35 34 30 26 23 22 18 17 18 18 20
76 76 70 64 58 52 47 43 39 36 35 37 39 38 37 37 39 42 41 37 33 31 30 30 29 29 30 31 32 36 33 29 28 28 28 26 24 21 19 16 15 16 17
73 75 71 65 60 54 49 44 40 35 31 34 38 39 38 40 43 45 40 35 30 29 30 29 29 27 27 29 29 28 24 21 20 19 20 20 24 23 19 15 12 13 14
72 72 69 65 60 55 50 44 41 35 30 33 38 38 40 43 46 43 39 34 29 27 27 28 28 27 27 28 25 22 18 17 18 16 13 12 19 21 18 14 12 10 8
67 69 66 62 58 53 49 45 41 37 32 30 35 38 40 42 43 42 38 32 28 26 26 26 27 27 25 24 23 21 14 13 9 8 12 14 15 20 19 16 13 10 8
67 68 64 59 55 51 47 43 40 37 34 30 32 38 40 42 42 40 36 32 29 26 25 26 26 27 27 24 23 20 16 7 4 1 4 7 10 13 14 15 16 14 11
63 64 62 56 51 46 44 42 39 36 35 31 30 34 38 39 40 39 36 33 28 26 24 23 23 24 25 25 24 23 22 14 7 9 4 2 1 4 7 10 14 19 20
59 60 61 57 52 47 42 41 40 38 35 31 27 29 35 38 39 39 37 34 28 25 23 22 21 20 20 22 23 23 24 21 19 19 13 13 10 7 6 6 10 17 23
52 50 54 54 52 49 47 44 41 39 38 35 30 28 30 36 37 37 36 33 29 26 23 22 20 19 19 19 20 21 20 21 18 21 26 21 20 14 10 11 13 16 21
46 44 45 47 51 49 47 45 44 44 42 39 36 31 31 32 36 37 37 35 32 29 26 24 23 22 20 19 18 18 19 16 16 16 21 21 15 13 14 16 19 22 22
38 38 47 51 50 49 48 47 46 48 47 44 41 39 37 34 34 38 39 37 34 32 29 27 25 23 21 18 17 18 17 17 13 8 8 15 14 16 21 24 23 22 22
33 34 40 47 55 56 53 51 50 50 48 46 43 41 40 37 37 40 42 42 39 37 34 30 28 27 23 22 21 21 21 23 20 16 13 14 16 18 20 25 28 26 24
52 44 52 51 60 64 59 55 52 51 52 50 47 46 45 42 42 41 42 43 43 38 35 32 31 29 27 26 23 22 23 22 20 21 20 22 22 20 21 23 23 21 24
60 66 60 59 64 66 57 54 55 53 47 44 46 45 44 46 44 41 43 45 44 40 38 35 35 36 33 32 28 23 18 17 15 16 16 17 20 21 24 28 26 29 32
62 56 59 50 60 63 56 54 50 46 38 41 40 42 44 43 43 44 44 44 43 38 34 31 26 27 28 25 31 30 26 21 20 21 22 25 30 29 28 30 30 31 32
72 63 55 58 57 55 55 53 46 48 41 41 40 34 41 40 43 45 44 42 36 33 36 37 35 33 35 35 36 34 33 27 23 26 28 31 33 30 29 35 36 37 37
59 39 46 46 49 51 53 53 49 45 41 36 33 34 43 42 44 44 45 42 36 36 37 39 39 42 42 41 40 35 32 29 29 23 23 33 35 37 40 41 34 35 37
62 52 50 51 52 57 56 56 55 53 47 40 31 26 37 43 44 43 42 45 39 38 50 55 51 54 48 42 42 38 38 48 45 43 40 41 43 44 42 35 32 36 42
68 60 59 54 51 58 67 62 59 58 58 62 59 38 44 53 45 41 40 40 55 50 67 69 66 55 52 52 55 55 52 53 48 45 41 42 44 43 40 35 33 30 27
71 65 63 59 52 57 70 76 69 74 71 67 66 57 74 75 72 66 69 73 74 62 79 72 57 55 53 53 63 67 49 66 55 50 49 49 51 43 37 33 32 30 28
63 61 63 60 59 60 68 69 71 71 60 54 53 64 79 85 81 39 37 58 79 92 71 97 56 63 62 64 66 58 50 55 55 54 49 53 49 39 39 38 37 34 31
59 59 59 64 58 51 51 62 70 65 61 61 66 69 78 81 84 81 84 79 73 65 90 66 67 65 61 58 59 37 26 41 42 47 46 45 42 42 41 43 41 43 40
69 65 64 64 65 67 70 68 62 52 57 49 55 64 70 74 75 64 63 63 49 51 63 71 58 47 52 59 36 40 59 58 39 41 44 37 41 47 52 49 49 50 52
75 75 69 63 57 55 52 52 53 53 48 29 27 26 27 36 27 33 23 21 30 36 42 44 38 37 35 32 30 62 65 50 55 56 61 66 65 65 64 61 60 64 65
81 78 64 57 46 41 39 41 41 40 36 32 29 29 32 33 43 26 31 36 38 36 41 43 39 35 45 55 54 52 51 49 49 53 59 64 75 84 79 77 78 81 78
Wind_Direction_500mb
173 167 165 165 164 164 163 163 165 166 166 163 160 160 161 161 157 152 152 148 143 137 132 129 126 127 127 127 125 119 123 122 114 104 97 96 85 84 92 92 92 95 95
167 169 167 166 165 164 163 159 158 160 163 169 169 167 166 164 161 158 154 151 146 141 136 132 130 128 122 119 119 121 118 114 107 97 89 85 85 80 80 81 88 94 91
169 169 169 169 167 165 163 161 158 159 159 164 166 166 166 164 161 159 157 155 150 144 141 137 134 128 122 123 119 122 118 110 105 99 92 90 79 76 73 73 81 88 90
172 172 171 171 170 169 166 165 162 159 157 160 163 164 166 164 162 160 161 158 152 149 145 143 140 133 129 134 131 128 125 119 115 111 100 92 83 70 66 66 73 75 85
174 174 172 173 173 172 170 172 167 163 161 161 166 167 167 167 165 166 166 161 158 154 151 151 150 148 145 143 142 140 138 131 125 110 91 92 85 70 56 51 55 56 65
177 175 176 175 176 176 177 178 175 172 168 166 168 169 169 170 171 172 170 166 164 161 159 160 161 163 164 164 161 155 151 140 126 110 88 91 85 72 46 37 34 26 24
178 177 178 179 180 180 181 184 182 182 178 172 173 175 173 173 176 177 175 175 174 171 170 169 170 173 179 179 180 175 172 176 254 227 115 101 88 73 56 30 10 1 346
180 178 179 180 182 186 187 189 190 191 191 183 179 183 181 181 182 183 184 184 184 181 181 182 179 178 181 187 193 196 196 209 242 254 267 338 299 33 37 24 353 351 341
183 181 181 183 184 188 193 198 198 199 200 197 193 192 191 190 188 188 188 188 193 194 191 193 192 189 190 194 202 209 215 227 238 237 251 286 300 289 295 325 326 336 342
177 181 189 192 192 192 195 197 200 206 207 207 206 205 207 201 198 196 196 198 203 203 201 202 203 205 205 206 212 218 225 233 235 239 255 267 262 271 280 299 309 317 330
179 184 193 203 205 202 201 203 201 202 205 210 215 217 219 215 211 208 208 208 211 211 210 211 211 214 217 220 223 232 235 239 246 249 247 254 259 254 279 289 293 288 298
174 201 202 206 211 212 212 211 207 206 205 207 212 218 226 226 223 219 219 219 219 219 218 219 222 226 227 232 234 238 242 235 245 227 208 220 240 264 279 285 287 285 289
165 186 201 214 213 214 215 217 215 213 211 213 218 224 231 233 234 231 225 224 226 226 226 228 231 233 234 237 240 242 247 240 251 247 234 240 256 272 283 293 294 292 295
203 226 219 209 211 213 214 217 218 217 217 219 222 227 232 238 241 240 237 233 232 234 238 240 242 245 244 245 250 247 251 243 265 257 258 261 269 279 293 301 302 302 305
207 201 204 208 211 213 213 216 218 218 220 225 229 233 240 243 246 249 246 241 239 237 241 244 251 252 251 251 240 238 236 238 239 241 248 257 267 273 285 287 287 291 295
203 216 219 213 212 213 216 219 222 222 219 228 233 243 249 253 255 254 249 245 243 244 246 244 252 257 250 251 234 234 230 230 237 242 258 273 283 281 286 287 285 286 285
216 235 227 217 212 216 221 223 221 225 218 226 236 243 250 254 259 258 253 246 245 243 246 255 264 261 250 250 241 240 237 235 247 259 273 280 279 275 283 293 295 294 291
221 220 225 224 224 217 219 220 214 210 209 216 234 245 253 251 249 253 253 248 252 254 255 257 257 258 260 259 255 248 244 260 270 260 276 272 265 274 285 288 289 299 299
208 218 228 229 221 215 217 217 213 214 218 222 239 234 254 254 252 250 247 247 241 264 258 259 255 262 264 257 250 254 273 278 263 263 262 262 270 281 279 282 287 295 295
211 224 239 236 228 224 220 216 217 220 234 253 244 239 246 259 261 254 249 251 251 252 260 262 254 250 256 261 266 270 285 273 262 254 255 261 273 277 274 276 288 299 288
227 229 229 230 226 221 219 221 229 226 236 254 239 230 227 236 240 229 238 263 249 242 256 257 257 259 261 263 265 269 267 265 252 258 262 267 272 265 266 278 290 297 302
215 218 219 223 226 225 226 235 235 243 257 246 234 239 242 241 235 235 257 261 257 248 239 262 252 256 260 261 258 263 263 264 261 260 265 266 258 257 270 277 287 297 302
221 216 212 216 220 224 229 237 240 246 249 250 250 252 250 244 247 255 271 279 264 237 248 275 263 257 258 267 267 254 266 252 271 276 265 254 250 264 275 281 288 291 292
213 215 208 215 222 226 229 230 230 239 252 262 267 262 261 264 266 271 271 266 241 233 248 266 267 271 272 263 272 270 257 263 275 281 272 261 264 271 283 284 286 288 289
213 209 210 210 214 219 223 226 235 237 238 234 252 264 263 246 268 252 226 251 238 230 244 258 266 272 275 283 268 260 262 263 262 267 279 278 281 282 282 283 282 282 283
212 208 207 210 215 214 215 219 223 235 230 231 257 274 274 257 247 259 234 225 252 239 246 251 257 267 281 270 261 261 268 266 266 273 276 279 283 281 281 281 281 281 283
Wind_Speed_850mb
66 68 64 59 51 45 46 45 45 42 37 34 33 33 33 30 30 30 36 38 35 33 31 29 27 25 24 25 26 27 27 27 28 27 26 23 22 19 18 20 22 21 21
77 73 67 62 55 49 46 44 41 39 37 36 36 34 35 34 34 36 41 37 33 31 30 30 30 29 28 29 30 31 31 33 35 34 30 26 23 22 18 17 18 18 20
76 76 70 64 58 52 47 43 39 36 35 37 39 38 37 37 39 42 41 37 33 31 30 30 29 29 30 31 32 36 33 29 28 28 28 26 24 21 19 16 15 16 17
73 75 71 65 60 54 49 44 40 35 31 34 38 39 38 40 43 45 40 35 30 29 30 29 29 27 27 29 29 28 24 21 20 19 20 20 24 23 19 15 12 13 14
72 72 69 65 60 55 50 44 41 35 30 33 38 38 40 43 46 43 39 34 29 27 27 28 28 27 27 28 25 22 18 17 18 16 13 12 19 21 18 14 12 10 8
67 69 66 62 58 53 49 45 41 37 32 30 35 38 40 42 43 42 38 32 28 26 26 26 27 27 25 24 23 21 14 13 9 8 12 14 15 20 19 16 13 10 8
67 68 64 59 55 51 47 43 40 37 34 30 32 38 40 42 42 40 36 32 29 26 25 26 26 27 27 24 23 20 16 7 4 1 4 7 10 13 14 15 16 14 11
63 64 62 56 51 46 44 42 39 36 35 31 30 34 38 39 40 39 36 33 28 26 24 23 23 24 25 25 24 23 22 14 7 9 4 2 1 4 7 10 14 19 20
59 60 61 57 52 47 42 41 40 38 35 31 27 29 35 38 39 39 37 34 28 25 23 22 21 20 20 22 23 23 24 21 19 19 13 13 10 7 6 6 10 17 23
52 50 54 54 52 49 47 44 41 39 38 35 30 28 30 36 37 37 36 33 29 26 23 22 20 19 19 19 20 21 20 21 18 21 26 21 20 14 10 11 13 16 21
46 44 45 47 51 49 47 45 44 44 42 39 36 31 31 32 36 37 37 35 32 29 26 24 23 22 20 19 18 18 19 16 16 16 21 21 15 13 14 16 19 22 22
38 38 47 51 50 49 48 47 46 48 47 44 41 39 37 34 34 38 39 37 34 32 29 27 25 23 21 18 17 18 17 17 13 8 8 15 14 16 21 24 23 22 22
33 34 40 47 55 56 53 51 50 50 48 46 43 41 40 37 37 40 42 42 39 37 34 30 28 27 23 22 21 21 21 23 20 16 13 14 16 18 20 25 28 26 24
52 44 52 51 60 64 59 55 52 51 52 50 47 46 45 42 42 41 42 43 43 38 35 32 31 29 27 26 23 22 23 22 20 21 20 22 22 20 21 23 23 21 24
60 66 60 59 64 66 57 54 55 53 47 44 46 45 44 46 44 41 43 45 44 40 38 35 35 36 33 32 28 23 18 17 15 16 16 17 20 21 24 28 26 29 32
62 56 59 50 60 63 56 54 50 46 38 41 40 42 44 43 43 44 44 44 43 38 34 31 26 27 28 25 31 30 26 21 20 21 22 25 30 29 28 30 30 31 32
72 63 55 58 57 55 55 53 46 48 41 41 40 34 41 40 43 45 44 42 36 33 36 37 35 33 35 35 36 34 33 27 23 26 28 31 33 30 29 35 36 37 37
59 39 46 46 49 51 53 53 49 45 41 36 33 34 43 42 44 44 45 42 36 36 37 39 39 42 42 41 40 35 32 29 29 23 23 33 35 37 40 41 34 35 37
62 52 50 51 52 57 56 56 55 53 47 40 31 26 37 43 44 43 42 45 39 38 50 55 51 54 48 42 42 38 38 48 45 43 40 41 43 44 42 35 32 36 42
68 60 59 54 51 58 67 62 59 58 58 62 59 38 44 53 45 41 40 40 55 50 67 69 66 55 52 52 55 55 52 53 48 45 41 42 44 43 40 35 33 30 27
71 65 63 59 52 57 70 76 69 74 71 67 66 57 74 75 72 66 69 73 74 62 79 72 57 55 53 53 63 67 49 66 55 50 49 49 51 43 37 33 32 30 28
63 61 63 60 59 60 68 69 71 71 60 54 53 64 79 85 81 39 37 58 79 92 71 97 56 63 62 64 66 58 50 55 55 54 49 53 49 39 39 38 37 34 31
59 59 59 64 58 51 51 62 70 65 61 61 66 69 78 81 84 81 84 79 73 65 90 66 67 65 61 58 59 37 26 41 42 47 46 45 42 42 41 43 41 43 40
69 65 64 64 65 67 70 68 62 52 57 49 55 64 70 74 75 64 63 63 49 51 63 71 58 47 52 59 36 40 59 58 39 41 44 37 41 47 52 49 49 50 52
75 75 69 63 57 55 52 52 53 53 48 29 27 26 27 36 27 33 23 21 30 36 42 44 38 37 35 32 30 62 65 50 55 56 61 66 65 65 64 61 60 64 65
81 78 64 57 46 41 39 41 41 40 36 32 29 29 32 33 43 26 31 36 38 36 41 43 39 35 45 55 54 52 51 49 49 53 59 64 75 84 79 77 78 81 78
Wind_Direction_850mb
173 167 165 165 164 164 163 163 165 166 166 163 160 160 161 161 157 152 152 148 143 137 132 129 126 127 127 127 125 119 123 122 114 104 97 96 85 84 92 92 92 95 95
167 169 167 166 165 164 163 159 158 160 163 169 169 167 166 164 161 158 154 151 146 141 136 132 130 128 122 119 119 121 118 114 107 97 89 85 85 80 80 81 88 94 91
169 169 169 169 167 165 163 161 158 159 159 164 166 166 166 164 161 159 157 155 150 144 141 137 134 128 122 123 119 122 118 110 105 99 92 90 79 76 73 73 81 88 90
172 172 171 171 170 169 166 165 162 159 157 160 163 164 166 164 162 160 161 158 152 149 145 143 140 133 129 134 131 128 125 119 115 111 100 92 83 70 66 66 73 75 85
174 174 172 173 173 172 170 172 167 163 161 161 166 167 167 167 165 166 166 161 158 154 151 151 150 148 145 143 142 140 138 131 125 110 91 92 85 70 56 51 55 56 65
177 175 176 175 176 176 177 178 175 172 168 166 168 169 169 170 171 172 170 166 164 161 159 160 161 163 164 164 161 155 151 140 126 110 88 91 85 72 46 37 34 26 24
178 177 178 179 180 180 181 184 182 182 178 172 173 175 173 173 176 177 175 175 174 171 170 169 170 173 179 179 180 175 172 176 254 227 115 101 88 73 56 30 10 1 346
180 178 179 180 182 186 187 189 190 191 191 183 179 183 181 181 182 183 184 184 184 181 181 182 179 178 181 187 193 196 196 209 242 254 267 338 299 33 37 24 353 351 341
183 181 181 183 184 188 193 198 198 199 200 197 193 192 191 190 188 188 188 188 193 194 191 193 192 189 190 194 202 209 215 227 238 237 251 286 300 289 295 325 326 336 342
177 181 189 192 192 192 195 197 200 206 207 207 206 205 207 201 198 196 196 198 203 203 201 202 203 205 205 206 212 218 225 233 235 239 255 267 262 271 280 299 309 317 330
179 184 193 203 205 202 201 203 201 202 205 210 215 217 219 215 211 208 208 208 211 211 210 211 211 214 217 220 223 232 235 239 246 249 247 254 259 254 279 289 293 288 298
174 201 202 206 211 212 212 211 207 206 205 207 212 218 226 226 223 219 219 219 219 219 218 219 222 226 227 232 234 238 242 235 245 227 208 220 240 264 279 285 287 285 289
165 186 201 214 213 214 215 217 215 213 211 213 218 224 231 233 234 231 225 224 226 226 226 228 231 233 234 237 240 242 247 240 251 247 234 240 256 272 283 293 294 292 295
203 226 219 209 211 213 214 217 218 217 217 219 222 227 232 238 241 240 237 233 232 234 238 240 242 245 244 245 250 247 251 243 265 257 258 261 269 279 293 301 302 302 305
207 201 204 208 211 213 213 216 218 218 220 225 229 233 240 243 246 249 246 241 239 237 241 244 251 252 251 251 240 238 236 238 239 241 248 257 267 273 285 287 287 291 295
203 216 219 213 212 213 216 219 222 222 219 228 233 243 249 253 255 254 249 245 243 244 246 244 252 257 250 251 234 234 230 230 237 242 258 273 283 281 286 287 285 286 285
216 235 227 217 212 216 221 223 221 225 218 226 236 243 250 254 259 258 253 246 245 243 246 255 264 261 250 250 241 240 237 235 247 259 273 280 279 275 283 293 295 294 291
221 220 225 224 224 217 219 220 214 210 209 216 234 245 253 251 249 253 253 248 252 254 255 257 257 258 260 259 255 248 244 260 270 260 276 272 265 274 285 288 289 299 299
208 218 228 229 221 215 217 217 213 214 218 222 239 234 254 254 252 250 247 247 241 264 258 259 255 262 264 257 250 254 273 278 263 263 262 262 270 281 279 282 287 295 295
211 224 239 236 228 224 220 216 217 220 234 253 244 239 246 259 261 254 249 251 251 252 260 262 254 250 256 261 266 270 285 273 262 254 255 261 273 277 274 276 288 299 288
227 229 229 230 226 221 219 221 229 226 236 254 239 230 227 236 240 229 238 263 249 242 256 257 257 259 261 263 265 269 267 265 252 258 262 267 272 265 266 278 290 297 302
215 218 219 223 226 225 226 235 235 243 257 246 234 239 242 241 235 235 257 261 257 248 239 262 252 256 260 261 258 263 263 264 261 260 265 266 258 257 270 277 287 297 302
221 216 212 216 220 224 229 237 240 246 249 250 250 252 250 244 247 255 271 279 264 237 248 275 263 257 258 267 267 254 266 252 271 276 265 254 250 264 275 281 288 291 292
213 215 208 215 222 226 229 230 230 239 252 262 267 262 261 264 266 271 271 266 241 233 248 266 267 271 272 263 272 270 257 263 275 281 272 261 264 271 283 284 286 288 289
213 209 210 210 214 219 223 226 235 237 238 234 252 264 263 246 268 252 226 251 238 230 244 258 266 272 275 283 268 260 262 263 262 267 279 278 281 282 282 283 282 282 283
212 208 207 210 215 214 215 219 223 235 230 231 257 274 274 257 247 259 234 225 252 239 246 251 257 267 281 270 261 261 268 266 266 273 276 279 283 281 281 281 281 281 283